GW1265 Weather Reports


time (UTC)temp
C
wind
direction
speed
KPH
gust
KPH
rain 1hr
cm
rain 24hr
cm
rain mn
cm
humidity
%
barometer
mb
20260508195336 13 45 6.4 29.0 0.00 0.00 0.00 10 998.9
20260508194826 13 113 8.0 33.8 0.00 0.00 0.00 10 999.0
20260508194316 13 180 12.9 33.8 0.00 0.00 0.00 10 998.8
20260508193806 13 248 12.9 32.2 0.00 0.00 0.00 10 999.0
20260508193257 13 135 9.7 32.2 0.00 0.00 0.00 10 998.9
20260508192746 13 45 9.7 29.0 0.00 0.00 0.00 10 998.7
20260508192236 13 113 6.4 32.2 0.00 0.00 0.00 10 998.9
20260508191726 13 23 9.7 32.2 0.00 0.00 0.00 10 998.8
20260508191215 13 203 6.4 35.4 0.00 0.00 0.00 10 998.9
20260508190705 13 113 11.3 38.6 0.00 0.00 0.00 10 999.3
20260508190155 13 270 8.0 38.6 0.00 0.00 0.00 10 998.9
20260508185646 13 158 6.4 35.4 0.00 0.00 0.00 10 998.9
20260508185135 13 68 9.7 35.4 0.00 0.00 0.00 10 998.9
20260508184625 13 90 12.9 33.8 0.00 0.00 0.00 10 998.9
20260508184115 13 135 8.0 32.2 0.00 0.00 0.00 10 999.2
20260508183605 13 293 12.9 29.0 0.00 0.00 0.00 10 998.9
20260508182544 13 248 11.3 32.2 0.00 0.00 0.00 10 999.2
20260508182034 13 90 6.4 33.8 0.00 0.00 0.00 10 999.0
20260508181525 13 270 9.7 33.8 0.00 0.00 0.00 10 999.2
20260508181015 13 225 6.4 29.0 0.00 0.00 0.00 10 999.4
20260508180504 13 90 11.3 29.0 0.00 0.00 0.00 10 999.3
20260508175954 13 113 6.4 24.1 0.00 0.00 0.00 10 999.3
20260508175444 13 0 9.7 29.0 0.00 0.00 0.00 10 999.3
20260508174934 13 135 12.9 33.8 0.00 0.00 0.00 10 999.4
20260508174423 13 90 9.7 33.8 0.00 0.00 0.00 10 999.7
20260508173914 13 293 6.4 32.2 0.00 0.00 0.00 10 999.4
20260508172853 13 293 12.9 27.4 0.00 0.00 0.00 10 999.3
20260508172343 12 225 9.7 27.4 0.00 0.00 0.00 10 999.7
20260508171833 12 45 11.3 37.0 0.00 0.00 0.00 10 999.2
20260508170812 12 248 8.0 32.2 0.00 0.00 0.00 10 999.7
20260508170303 12 180 6.4 40.2 0.00 0.00 0.00 10 999.5
20260508165753 12 158 12.9 40.2 0.00 0.00 0.00 10 999.6
20260508165243 12 270 11.3 33.8 0.00 0.00 0.00 10 999.7
20260508164222 12 338 6.4 25.7 0.00 0.00 0.00 10 1000.0
20260508163712 12 315 6.4 29.0 0.00 0.00 0.00 10 1000.2
20260508163202 12 338 12.9 32.2 0.00 0.00 0.00 10 1000.0
20260508162652 12 293 12.9 32.2 0.00 0.00 0.00 10 999.9
20260508162142 11 135 6.4 27.4 0.00 0.00 0.00 10 1000.0
20260508161632 11 68 6.4 32.2 0.00 0.00 0.00 10 1000.4
20260508160612 11 158 9.7 46.7 0.00 0.00 0.00 10 1000.3
20260508155551 12 0 12.9 40.2 0.00 0.00 0.00 10 1000.5
20260508154531 11 113 9.7 29.0 0.00 0.00 0.00 10 1000.8
20260508154021 11 315 12.9 40.2 0.00 0.00 0.00 10 1000.5
20260508153512 11 180 12.9 40.2 0.00 0.00 0.00 10 1000.7
20260508153001 12 293 8.0 37.0 0.00 0.00 0.00 10 1000.8
20260508152450 11 0 9.7 37.0 0.00 0.00 0.00 10 1000.7
20260508151940 11 293 9.7 32.2 0.00 0.00 0.00 10 1000.6
20260508151431 11 180 9.7 37.0 0.00 0.00 0.00 10 1000.7
20260508150919 11 0 12.9 37.0 0.00 0.00 0.00 10 1000.5
20260508150411 10 203 12.9 32.2 0.00 0.00 0.00 10 1000.8
20260508145859 10 225 8.0 32.2 0.00 0.00 0.00 10 1000.7
20260508145349 10 158 9.7 32.2 0.00 0.00 0.00 10 1000.5
20260508144330 10 248 9.7 37.0 0.00 0.00 0.00 10 1000.8
20260508143820 10 248 8.0 33.8 0.00 0.00 0.00 10 1000.9
20260508143309 10 180 6.4 33.8 0.00 0.00 0.00 10 1001.1
20260508142800 10 315 8.0 40.2 0.00 0.00 0.00 10 1001.1
20260508142255 10 23 8.0 40.2 0.00 0.00 0.00 10 1000.9
20260508141229 10 270 12.9 32.2 0.00 0.00 0.00 10 1001.3
20260508140719 10 293 9.7 32.2 0.00 0.00 0.00 10 1001.1
20260508140208 9 113 12.9 38.6 0.00 0.00 0.00 10 1000.7
20260508135659 9 225 8.0 38.6 0.00 0.00 0.00 10 1000.9
20260508135149 9 180 12.9 32.2 0.00 0.00 0.00 10 1001.1
20260508134128 10 113 9.7 33.8 0.00 0.00 0.00 10 1001.3
20260508133618 10 248 12.9 38.6 0.00 0.00 0.00 10 1000.8
20260508133108 10 68 9.7 38.6 0.00 0.00 0.00 10 1000.9
20260508132558 10 45 8.0 38.6 0.00 0.00 0.00 10 1000.9
20260508132048 10 0 8.0 29.0 0.00 0.00 0.00 10 1001.0
20260508131538 10 180 8.0 35.4 0.00 0.00 0.00 10 1000.5
20260508131028 9 45 8.0 35.4 0.00 0.00 0.00 10 1000.7
20260508130518 9 270 11.3 33.8 0.00 0.00 0.00 10 1000.8
20260508130007 9 68 8.0 33.8 0.00 0.00 0.00 10 1000.2
20260508125457 9 315 6.4 37.0 0.00 0.00 0.00 10 1000.2
20260508124946 8 248 11.3 37.0 0.00 0.00 0.00 10 1000.1
20260508124437 8 203 11.3 32.2 0.00 0.00 0.00 10 1000.4
20260508123927 8 0 12.9 35.4 0.00 0.00 0.00 10 999.9
20260508123416 8 225 8.0 35.4 0.00 0.00 0.00 10 999.9
20260508122907 8 248 11.3 40.2 0.00 0.00 0.00 10 1000.2
20260508122357 8 248 17.7 40.2 0.00 0.00 0.00 10 1000.0
20260508121336 7 270 11.3 38.6 0.00 0.00 0.00 10 999.9
20260508120316 7 203 12.9 32.2 0.00 0.00 0.00 10 999.9
20260508115256 7 338 8.0 38.6 0.00 0.00 0.00 10 1000.1
20260508114746 7 315 6.4 33.8 0.00 0.00 0.00 10 999.7
20260508114235 6 315 6.4 33.8 0.00 0.00 0.00 10 1000.0
20260508113726 6 23 14.5 33.8 0.00 0.00 0.00 10 1000.0
20260508113216 6 203 8.0 32.2 0.00 0.00 0.00 10 999.5
20260508112706 6 248 11.3 35.4 0.00 0.00 0.00 10 999.7
20260508112155 6 68 8.0 35.4 0.00 0.00 0.00 10 999.7
20260508111135 6 135 8.0 37.0 0.00 0.00 0.00 10 999.7
20260508110625 6 68 9.7 37.0 0.00 0.00 0.00 10 999.5
20260508110115 6 0 8.0 35.4 0.00 0.00 0.00 10 999.3
20260508105604 6 315 9.7 35.4 0.00 0.00 0.00 10 999.5
20260508105055 6 315 12.9 25.7 0.00 0.00 0.00 10 999.6
20260508104546 6 270 11.3 32.2 0.00 0.00 0.00 10 999.6
20260508103524 6 270 9.7 27.4 0.00 0.00 0.00 10 999.3
20260508103013 6 158 9.7 24.1 0.00 0.00 0.00 10 999.2
20260508102503 6 293 9.7 33.8 0.00 0.00 0.00 10 999.2
20260508101443 6 225 11.3 37.0 0.00 0.00 0.00 10 999.2
20260508100934 6 68 9.7 33.8 0.00 0.00 0.00 10 998.9
20260508100424 6 225 9.7 29.0 0.00 0.00 0.00 10 999.1
20260508095913 6 135 12.9 29.0 0.00 0.00 0.00 10 999.0
20260508095403 6 248 9.7 48.3 0.00 0.00 0.00 10 999.1
20260508094854 6 68 6.4 48.3 0.00 0.00 0.00 10 999.3
20260508094353 6 0 12.9 38.6 0.00 0.00 0.00 10 999.1
20260508093833 6 315 11.3 38.6 0.00 0.00 0.00 10 998.8
20260508093323 6 270 6.4 27.4 0.00 0.00 0.00 10 999.1
20260508092312 6 180 11.3 38.6 0.00 0.00 0.00 10 998.9
20260508091752 6 90 8.0 29.0 0.00 0.00 0.00 10 998.9
20260508091243 6 293 12.9 33.8 0.00 0.00 0.00 10 998.7
20260508090223 6 90 11.3 35.4 0.00 0.00 0.00 10 998.6
20260508085711 6 135 8.0 35.4 0.00 0.00 0.00 10 998.5
20260508085201 6 270 14.5 35.4 0.00 0.00 0.00 10 998.3
20260508084651 6 270 8.0 43.5 0.00 0.00 0.00 10 998.8
20260508084142 6 90 12.9 43.5 0.00 0.00 0.00 10 998.5
20260508083631 6 90 12.9 32.2 0.00 0.00 0.00 10 998.3
20260508083122 6 0 12.9 29.0 0.00 0.00 0.00 10 998.1
20260508082102 6 113 12.9 43.5 0.00 0.00 0.00 10 998.0
20260508081551 6 23 9.7 43.5 0.00 0.00 0.00 10 998.3
20260508081042 6 270 11.3 32.2 0.00 0.00 0.00 10 998.5
20260508080535 6 68 6.4 33.8 0.00 0.00 0.00 10 998.7
20260508080020 6 90 9.7 40.2 0.00 0.00 0.00 10 998.3
20260508075510 7 113 12.9 40.2 0.00 0.00 0.00 10 998.5
20260508075001 6 203 8.0 35.4 0.00 0.00 0.00 10 998.3
20260508074450 7 90 12.9 38.6 0.00 0.00 0.00 10 998.5
20260508073940 7 203 9.7 38.6 0.00 0.00 0.00 10 998.5
20260508073430 7 270 8.0 32.2 0.00 0.00 0.00 10 998.5
20260508072921 7 158 14.5 32.2 0.00 0.00 0.00 10 998.7
20260508072410 7 270 14.5 32.2 0.00 0.00 0.00 10 998.6
20260508071900 7 158 9.7 25.7 0.00 0.00 0.00 10 998.7
20260508071350 7 90 12.9 27.4 0.00 0.00 0.00 10 999.0
20260508070840 7 293 12.9 27.4 0.00 0.00 0.00 10 999.0
20260508070329 7 248 6.4 0.0 0.00 0.00 0.00 10 999.2
20260508070147 7 248 6.4 0.0 0.00 0.00 0.00 10 999.2
20260508065550 7 113 9.7 29.0 0.00 0.03 0.00 10 999.1
20260508065030 7 270 14.5 32.2 0.00 0.03 0.00 10 998.7
20260508064521 8 113 11.3 32.2 0.00 0.03 0.00 10 999.3
20260508064010 8 248 8.0 27.4 0.00 0.03 0.00 10 999.0
20260508063501 8 45 9.7 27.4 0.00 0.03 0.00 10 999.0
20260508062950 8 315 9.7 33.8 0.00 0.03 0.00 10 999.2
20260508062441 8 68 6.4 33.8 0.00 0.03 0.00 10 999.2
20260508061930 8 248 8.0 35.4 0.00 0.03 0.00 10 999.2
20260508061420 8 90 9.7 35.4 0.00 0.03 0.00 10 999.4
20260508060910 8 90 6.4 33.8 0.00 0.03 0.00 10 999.1
20260508060400 8 225 8.0 33.8 0.00 0.03 0.00 10 999.0
20260508055851 8 293 11.3 33.8 0.00 0.03 0.00 10 999.1
20260508055340 8 315 6.4 29.0 0.00 0.03 0.00 10 999.2
20260508054830 8 203 6.4 29.0 0.00 0.03 0.00 10 999.2
20260508054319 8 338 11.3 33.8 0.00 0.03 0.00 10 999.1
20260508053810 9 113 11.3 35.4 0.00 0.03 0.00 10 999.0
20260508053259 9 248 11.3 35.4 0.00 0.03 0.00 10 999.2
20260508052749 9 0 12.9 35.4 0.00 0.03 0.00 10 999.2
20260508052239 8 248 11.3 33.8 0.00 0.03 0.00 10 999.0
20260508051730 8 248 11.3 27.4 0.00 0.03 0.00 10 998.9
20260508051219 8 68 11.3 38.6 0.00 0.03 0.00 10 998.9
20260508050708 8 68 14.5 38.6 0.00 0.03 0.00 10 999.0
20260508050158 8 135 12.9 29.0 0.00 0.03 0.00 10 999.0
20260508045648 8 270 9.7 29.0 0.00 0.03 0.00 10 999.0
20260508045138 8 248 12.9 32.2 0.00 0.03 0.00 10 999.1
20260508044628 8 270 11.3 32.2 0.00 0.03 0.00 10 998.9
20260508044118 9 68 11.3 38.6 0.00 0.03 0.00 10 998.9
20260508043609 9 135 11.3 38.6 0.00 0.03 0.00 10 999.0
20260508043107 9 158 8.0 33.8 0.00 0.03 0.00 10 999.0
20260508042548 9 293 12.9 33.8 0.00 0.03 0.00 10 999.0
20260508042038 9 315 12.9 33.8 0.00 0.03 0.00 10 999.2
20260508041538 9 158 12.9 33.8 0.00 0.03 0.00 10 999.2
20260508041018 9 225 12.9 29.0 0.00 0.03 0.00 10 999.0
20260508040507 9 248 9.7 29.0 0.00 0.03 0.00 10 998.8
20260508035956 9 90 6.4 29.0 0.00 0.03 0.00 10 998.9
20260508035447 9 113 9.7 33.8 0.00 0.03 0.00 10 998.9
20260508034937 9 293 9.7 33.8 0.00 0.03 0.00 10 998.9
20260508034428 10 90 8.0 32.2 0.00 0.03 0.00 10 998.7
20260508033917 10 23 14.5 32.2 0.00 0.03 0.00 10 999.1
20260508033407 10 203 11.3 24.1 0.00 0.03 0.00 10 998.9
20260508032856 10 338 8.0 22.5 0.00 0.03 0.00 10 998.7
20260508032346 10 270 6.4 25.7 0.00 0.03 0.00 10 998.8
20260508031837 10 90 8.0 25.7 0.00 0.03 0.00 10 998.7
20260508031326 10 225 8.0 24.1 0.00 0.03 0.00 10 998.7
20260508030817 10 293 6.4 22.5 0.00 0.03 0.00 10 998.4
20260508030306 10 90 6.4 22.5 0.00 0.03 0.00 10 998.5
20260508025757 11 248 4.8 22.5 0.00 0.03 2.46 10 998.4
20260508025245 11 293 6.4 22.5 0.00 0.03 2.46 10 998.2
20260508024225 11 135 6.4 24.1 0.00 0.03 2.46 10 998.1
20260508023206 11 203 8.0 20.9 0.00 0.03 2.46 10 997.9
20260508022655 11 248 6.4 22.5 0.00 0.03 2.46 10 998.1
20260508022145 11 338 6.4 22.5 0.00 0.03 2.46 10 998.1
20260508021635 11 180 6.4 20.9 0.00 0.03 2.46 10 998.1
20260508021124 11 293 6.4 20.9 0.00 0.03 2.46 10 998.1
20260508020616 12 23 4.8 17.7 0.00 0.03 2.46 10 998.2
20260508020105 12 135 6.4 24.1 0.00 0.03 2.46 10 997.9
20260508015045 12 248 12.9 29.0 0.00 0.03 2.46 10 997.7
20260508014534 12 248 9.7 32.2 0.00 0.03 2.46 10 997.6
20260508014024 12 225 9.7 32.2 0.00 0.03 2.46 10 997.8
20260508013515 12 315 9.7 29.0 0.00 0.03 2.46 10 997.6
20260508013005 12 315 6.4 35.4 0.00 0.03 2.46 10 997.7
20260508012454 12 270 11.3 35.4 0.00 0.03 2.46 10 997.9
20260508011944 12 45 8.0 32.2 0.00 0.03 2.46 10 997.8
20260508010924 12 203 12.9 25.7 0.00 0.03 2.46 10 998.0
20260508010413 12 248 4.8 32.2 0.00 0.03 2.46 10 997.7
20260508005904 12 0 9.7 37.0 0.00 0.03 2.46 10 997.9
20260508004843 13 293 11.3 43.5 0.00 0.03 2.46 10 997.7
20260508004332 13 315 14.5 40.2 0.00 0.03 2.46 10 997.8
20260508003823 13 338 12.9 40.2 0.00 0.03 2.46 10 997.7
20260508003314 13 315 17.7 33.8 0.00 0.03 2.46 10 997.7
20260508002803 13 248 9.7 32.2 0.00 0.03 2.46 10 997.9
20260508002253 13 135 6.4 33.8 0.00 0.03 2.46 10 997.5
20260508001742 13 293 12.9 35.4 0.00 0.03 2.46 10 997.8
20260508001232 13 315 12.9 37.0 0.00 0.03 2.46 10 997.7
20260508000722 13 270 8.0 37.0 0.00 0.03 2.46 10 998.1
20260507235701 13 225 14.5 35.4 0.00 0.03 2.46 10 997.9
20260507235152 13 270 9.7 32.2 0.00 0.03 2.46 10 997.8
20260507234641 13 180 9.7 29.0 0.00 0.03 2.46 10 997.9
20260507234132 13 293 12.9 29.0 0.00 0.03 2.46 10 998.1
20260507233622 13 315 9.7 27.4 0.00 0.03 2.46 10 998.1
20260507233111 13 203 6.4 24.1 0.00 0.03 2.46 10 997.9
20260507232601 13 315 6.4 24.1 0.00 0.03 2.46 10 998.2
20260507232050 14 270 9.7 24.1 0.00 0.03 2.46 10 998.4
20260507231036 14 293 11.3 32.2 0.00 0.03 2.46 10 998.4
20260507230521 14 293 6.4 27.4 0.00 0.03 2.46 10 998.4
20260507230014 14 315 6.4 27.4 0.00 0.03 2.46 10 998.3
20260507225501 14 338 12.9 29.0 0.00 0.03 2.46 10 998.0
20260507224951 14 315 8.0 29.0 0.00 0.03 2.46 10 998.2
20260507224440 14 315 8.0 27.4 0.00 0.03 2.46 10 998.2
20260507223930 14 293 6.4 24.1 0.00 0.03 2.46 10 998.0
20260507223421 14 248 6.4 17.7 0.00 0.03 2.46 10 998.1
20260507222910 14 158 4.8 20.9 0.00 0.03 2.46 10 998.0
20260507222400 14 293 4.8 20.9 0.00 0.03 2.46 10 997.9
20260507221851 14 225 4.8 17.7 0.00 0.03 2.46 10 997.5
20260507221340 14 293 9.7 20.9 0.00 0.03 2.46 10 997.6
20260507220830 14 270 6.4 22.5 0.00 0.03 2.46 10 997.7
20260507220320 14 23 3.2 24.1 0.00 0.03 2.46 10 997.5
20260507215809 14 293 6.4 24.1 0.00 0.03 2.46 10 997.4
20260507215301 14 338 6.4 20.9 0.00 0.03 2.46 10 997.3
20260507214748 14 270 6.4 22.5 0.00 0.03 2.46 10 996.8
20260507213730 14 248 6.4 24.1 0.00 0.03 2.46 10 996.8
20260507213219 14 203 4.8 35.4 0.00 0.03 2.46 10 996.7
20260507212709 14 180 12.9 35.4 0.00 0.03 2.46 10 996.4
20260507212159 14 270 8.0 32.2 0.00 0.03 2.46 10 996.5
20260507211649 14 293 12.9 32.2 0.00 0.03 2.46 10 996.4
20260507211138 14 315 14.5 32.2 0.00 0.03 2.46 10 996.3
20260507210628 14 203 11.3 33.8 0.00 0.03 2.46 10 996.4
20260507210118 15 225 14.5 33.8 0.00 0.03 2.46 10 996.3
20260507205609 15 270 14.5 38.6 0.00 0.03 2.46 10 996.3
20260507205058 15 225 6.4 38.6 0.00 0.03 2.46 10 996.3
20260507204548 15 248 9.7 35.4 0.00 0.03 2.46 10 996.4
20260507203528 15 270 6.4 37.0 0.00 0.03 2.46 10 996.4
20260507202507 15 315 12.9 35.4 0.00 0.03 2.46 10 996.6
20260507201448 15 203 19.3 33.8 0.00 0.03 2.46 10 996.6
20260507200937 15 225 17.7 38.6 0.00 0.03 2.46 10 996.2
20260507200427 15 248 17.7 38.6 0.00 0.03 2.46 10 996.1
20260507195918 15 248 6.4 40.2 0.00 0.03 2.46 10 996.6